Voltar ao catálogo

COSMOS 2022

GLONASS

AtivoNavegaçãoMEO
NORAD 20024·PAYLOAD·🇷🇺 Russia

Lançado May 31, 1989 de Baikonur Cosmodrome

Loading…

Próximas Passagens (próximas 24 horas)

TLE

EnvelhecendoSource: Space-Track

Época: Aug 31, 2026, 00:38 UTC

1 20024U 89039A   26243.02693034 -.00000018  00000-0  00000+0 0  9990
2 20024  64.8846 308.3034 0009880 210.5916 148.3681  2.13102274289929

Acompanhe COSMOS 2022 em tempo real com AllMySat

Download on the App Store